Location: Newark
(51.8900°N, 2.0780°W)
Time: 12:44:25
(UTC+00:00)

Envisat - Pass Details

Date: 27 November 2019
Orbit: 764 x 766 km, 98.1° (Epoch: 07 December)

Event Time Altitude Azimuth Distance (km) Brightness Sun altitude
Rises 17:20:32 0° 148° (SSE) 3,223 6.1 -11.3°
Reaches altitude 10° 17:22:53 10° 143° (SE) 2,300 5.3 -11.6°
Maximum altitude 17:27:47 53° 68° (ENE) 944 3.1 -12.3°
Drops below altitude 10° 17:32:44 10° 353° (N) 2,315 5.4 -13.1°
Sets 17:35:05 0° 349° (N) 3,245 6.2 -13.4°
